Miscellaneous Local Product
Issued by NWS Hastings, NE

Home | Current Version | Previous Version | Graphics & Text | Print | Product List | Glossary On
Versions: 1 2 3 4 5 6 7 8 9 10 11 12 13 14 15 16 17 18 19 20 21 22 23 24 25 26 27 28 29 30 31 32 33 34 35 36 37 38 39 40 41 42 43 44 45 46 47 48 49 50
133
AXUS43 KGID 200102
MISGRI

GID CWA HOURLY WEATHER ROUNDUP
NATIONAL WEATHER SERVICE HASTINGS NE
800 PM CDT THU APR 19 2018

NOTE: "FAIR" INDICATES FEW OR NO CLOUDS BELOW 12,000 FEET WITH NO
SIGNIFICANT WEATHER AND/OR OBSTRUCTIONS TO VISIBILITY.

...SOUTH CENTRAL NEBRASKA...

CITY           SKY/WX    TMP DP  RH WIND       PRES   REMARKS
GRAND ISLAND   CLEAR     52  28  39 SE8       30.33S
KEARNEY        CLEAR     52  27  38 SE10      30.31S
HASTINGS       PTCLDY    52  26  36 E8        30.32S
ORD            CLEAR     50  23  34 SE7       30.31S
YORK             N/A     52  27  37 CALM      30.34R
AURORA         CLOUDY    52  25  34 SE8       30.33R
LEXINGTON      PTCLDY    53  25  33 SE10      30.29S
HOLDREGE       CLOUDY    52  27  38 SE10      30.30S
HEBRON         PTCLDY    54  26  33 SE6       30.33S

...NEBRASKA PANHANDLE...

CITY           SKY/WX    TMP DP  RH WIND       PRES   REMARKS
CHADRON        CLOUDY    56  31  38 SE13      30.12F
ALLIANCE       CLOUDY    52  30  43 SE23G32   30.13F
SCOTTSBLUFF    CLOUDY    58  30  34 SE23G30   30.07F
SIDNEY         CLOUDY    54  28  36 SE18G29   30.12F

...WESTERN AND NORTH CENTRAL NEBRASKA...

CITY           SKY/WX    TMP DP  RH WIND       PRES   REMARKS
VALENTINE      MOCLDY    51  25  36 SE13      30.28R
AINSWORTH      MOCLDY    48  28  45 SE9       30.29S
ONEILL         PTCLDY    47  32  55 E9        30.33F
BROKEN BOW     PTCLDY    50  28  42 SE9       30.29S
IMPERIAL       MOCLDY    55  26  32 E20G33    30.18F
NORTH PLATTE   MOCLDY    53  27  36 SE13G21   30.26R
MCCOOK         PTCLDY    54  27  35 E16       30.24F

...EASTERN NEBRASKA...

CITY           SKY/WX    TMP DP  RH WIND       PRES   REMARKS
NORFOLK        PTCLDY    49  25  39 E7        30.35R
SO SIOUX CITY  CLOUDY    43  30  60 E13       30.40S
TEKAMAH        PTCLDY    50  31  48 E9        30.37F
COLUMBUS       CLOUDY    51  27  39 E8        30.36F
ALBION         CLOUDY    51  24  35 E8        30.34S
OMAHA EPPLEY   MOCLDY    54  27  35 E8        30.37S
OFFUTT AFB     CLEAR     51  27  39 E7        30.36S
MILLARD        CLEAR     56  29  35 CALM      30.36S
LINCOLN        CLEAR     54  26  34 E8        30.36F
NEBRASKA CITY  CLEAR     53  29  40 E5        30.36S
BEATRICE       CLOUDY    55  30  38 E6        30.35S
FALLS CITY     CLEAR     52  27  38 E7        30.36R

...NORTHERN KANSAS...

CITY           SKY/WX    TMP DP  RH WIND       PRES   REMARKS
GOODLAND       MOCLDY    57  26  30 SE17G31   30.16F
HILL CITY      CLEAR     56  25  30 SE10      30.29R
NORTON         CLEAR     54  27  35 E9        30.27F
PHILLIPSBURG   CLEAR     54  27  35 E9        30.31S
SMITH CENTER   CLEAR     52  27  37 SE8       30.32R
BELOIT         CLEAR     39  16  38 CALM      30.32S
HAYS           PTCLDY    55  27  34 SE13      30.29S
RUSSELL        PTCLDY    55  29  36 SE12      30.28F
CONCORDIA      CLOUDY    52  24  33 SE6       30.32F
SALINA         CLEAR     57  28  33 E7        30.32F
TOPEKA         CLEAR     54  30  40 E7        30.35S



USA.gov is the U.S. government's official web portal to all federal, state and local government web resources and services.